This is the latest recevied weather packets stored in our database for station/object AA7VG. If no packets are shown the sender has not sent any weather packets the latest 10 day(s).
| Time | Temp. | Humidity | Pressure | Rain* | Wind** | Luminosity | Snow |
|---|---|---|---|---|---|---|---|
| 1777675840 | 20.56° C | 16% | 1017.8 hPa | 0 mm | - | - | - |
| 1777675538 | 21.11° C | 17% | 1017.7 hPa | 0 mm | - | - | - |
| 1777675235 | 21.11° C | 17% | 1017.8 hPa | 0 mm | - | - | - |
| 1777674931 | 21.67° C | 17% | 1017.7 hPa | 0 mm | - | - | - |
| 1777674628 | 21.67° C | 16% | 1017.6 hPa | 0 mm | - | - | - |
| 1777674325 | 21.11° C | 17% | 1018 hPa | 0 mm | - | - | - |
| 1777674021 | 21.11° C | 17% | 1018 hPa | 0 mm | - | - | - |
| 1777673717 | 21.11° C | 17% | 1017.9 hPa | 0 mm | - | - | - |
| 1777673415 | 21.67° C | 17% | 1017.9 hPa | 0 mm | - | - | - |
| 1777673113 | 22.22° C | 16% | 1018.2 hPa | 0 mm | - | - | - |
| 1777672809 | 22.22° C | 16% | 1018.2 hPa | 0 mm | - | - | - |
| 1777672505 | 22.22° C | 15% | 1018.2 hPa | 0 mm | - | - | - |
| 1777672201 | 21.67° C | 15% | 1018.4 hPa | 0 mm | - | - | - |
| 1777671896 | 21.67° C | 17% | 1018.2 hPa | 0 mm | - | - | - |
| 1777671592 | 22.22° C | 16% | 1018.6 hPa | 0 mm | - | - | - |
| 1777671290 | 21.67° C | 16% | 1018.6 hPa | 0 mm | - | - | - |
| 1777670984 | 21.11° C | 17% | 1018.6 hPa | 0 mm | - | - | - |
| 1777670682 | 21.11° C | 17% | 1018.7 hPa | 0 mm | - | - | - |
| 1777670378 | 21.11° C | 18% | 1018.7 hPa | 0 mm | - | - | - |
| 1777670076 | 20.56° C | 19% | 1018.5 hPa | 0 mm | - | - | - |
| 1777669773 | 20° C | 19% | 1018.7 hPa | 0 mm | - | - | - |
| 1777669470 | 20.56° C | 17% | 1018.6 hPa | 0 mm | - | - | - |
| 1777669166 | 20° C | 17% | 1018.7 hPa | 0 mm | - | - | - |
| 1777668863 | 20.56° C | 17% | 1018.8 hPa | 0 mm | - | - | - |
| 1777668561 | 20.56° C | 17% | 1018.9 hPa | 0 mm | - | - | - |
* Rain latest hour (hover to see other rain measurements)
** Current wind speed in m/s (hover to see current wind gust speed)